User: anonymous   Login
Location: Unspecified
(0.0000°N, 0.0000°E)
Time: 17:26:14
(UTC+00:00)
Language:

Kosmos-2180 - Orbit

View from above orbital plane
View from above orbital plane
View from above satellite
View from above satellite

Ground track
Ground track

The orbit data is extracted from the following two-line orbital elements,

1 21875U 92008A   18112.92627056 +.00000048 +00000-0 +35023-4 0  9991
2 21875 082.9249 267.4236 0037014 338.8192 130.3432 13.73729760312038
Epoch (UTC): 22 April 2018 22:13:49
Eccentricity: 0.0037014
inclination: 82.9249°
perigee height: 959 km
apogee height: 1013 km
right ascension of ascending node: 267.4236°
argument of perigee: 338.8192°
revolutions per day: 13.73729760
mean anomaly at epoch: 130.3432°
orbit number at epoch: 31203

The dashed part of the orbit path shows where the satellite is in the earth's shadow,  

DLR